Weather History for KLGD - July, 2013

Change the Weather History Date:

Friday, July 19, 2013

  Actual Average (KBKE) Record (KBKE)
Temperature  
Mean Temperature 74 °F 66 °F  
Max Temperature 96 °F 85 °F 99 °F (2003)
Min Temperature 53 °F 47 °F 34 °F (2008)
Degree Days  
Heating Degree Days 0 2  
Month to date heating degree days 54  
Since 1 June heating degree days 280  
Since 1 July heating degree days 54  
Cooling Degree Days 10 3  
Month to date cooling degree days 38  
Year to date cooling degree days 56  
Since 1 June cooling degree days 54  
Growing Degree Days 24 (Base 50)    
Moisture  
Dew Point 39 °F    
Average Humidity 29    
Maximum Humidity 47    
Minimum Humidity 16    
Precipitation  
Precipitation 0.00 in 0.02 in 0.95 in (2004)
Month to date precipitation 0.44  
Year to date precipitation 6.15  
Sea Level Pressure  
Sea Level Pressure 30.05 in    
Wind  
Wind Speed 6 mph (NNW)    
Max Wind Speed 13 mph    
Max Gust Speed 17 mph    
Visibility 10 miles    
Events      
T = Trace of Precipitation, MM = Missing Value Source: NWS Daily Summary

Daily Weather History Graph

Daily Weather History Graph

Search for Another Location

Airport or City:

Trip Planner

Search our weather history database for the weather conditions in past years. The results will help you decide how hot, cold, wet, or windy it might be!

Date:

Astronomy

Jul. 19, 2013 Rise Set
Actual Time 5:22 AM PDT 8:33 PM PDT
Civil Twilight 4:47 AM PDT 9:08 PM PDT
Nautical Twilight 4:00 AM PDT 9:54 PM PDT
Astronomical Twilight 3:04 AM PDT 10:50 PM PDT
Moon 5:40 PM PDT (7/19) 2:09 AM PDT (7/19)
Length of Visible Light 16h 21m
Length of Day
15h 10m
Waxing Gibbous, 87% of the Moon is Illuminated
Jul 19
Waxing Gibbous
Jul 22
Full
Jul 29
Last Quarter
Aug 6
New
Aug 14
First Quarter

Hourly Weather History & Observations

Time (PDT) Temp. Dew Point Humidity Pressure Visibility Wind Dir Wind Speed Gust Speed Precip Events Conditions
12:15 AM 68.0 °F 35.6 °F 30% 30.07 in 10.0 mi NNW 12.7 mph - N/A   Clear
12:35 AM 71.6 °F 35.6 °F 27% 30.07 in 10.0 mi NW 10.4 mph - N/A   Clear
12:55 AM 69.8 °F 33.8 °F 27% 30.08 in 10.0 mi Calm Calm - N/A   Clear
1:15 AM 66.2 °F 33.8 °F 30% 30.08 in 10.0 mi NNE 5.8 mph - N/A   Clear
1:35 AM 66.2 °F 35.6 °F 32% 30.08 in 10.0 mi NNW 6.9 mph - N/A   Clear
1:55 AM 62.6 °F 33.8 °F 34% 30.08 in 10.0 mi WNW 5.8 mph - N/A   Clear
2:15 AM 62.6 °F 35.6 °F 37% 30.08 in 10.0 mi NW 12.7 mph - N/A   Clear
2:35 AM 64.4 °F 35.6 °F 34% 30.08 in 10.0 mi West 10.4 mph - N/A   Clear
2:55 AM 62.6 °F 33.8 °F 34% 30.08 in 10.0 mi NW 5.8 mph - N/A   Clear
3:15 AM 60.8 °F 33.8 °F 36% 30.08 in 10.0 mi Calm Calm - N/A   Clear
3:35 AM 57.2 °F 33.8 °F 41% 30.09 in 10.0 mi SE 4.6 mph - N/A   Clear
3:55 AM 55.4 °F 33.8 °F 44% 30.09 in 10.0 mi Calm Calm - N/A   Clear
4:15 AM 53.6 °F 33.8 °F 47% 30.09 in 10.0 mi East 3.5 mph - N/A   Clear
4:35 AM 55.4 °F 33.8 °F 44% 30.09 in 10.0 mi Calm Calm - N/A   Clear
4:55 AM 55.4 °F 33.8 °F 44% 30.09 in 10.0 mi Calm Calm - N/A   Clear
5:15 AM 53.6 °F 33.8 °F 47% 30.10 in 10.0 mi South 3.5 mph - N/A   Clear
5:35 AM 53.6 °F 33.8 °F 47% 30.10 in 10.0 mi Calm Calm - N/A   Clear
5:55 AM 55.4 °F 35.6 °F 47% 30.11 in 10.0 mi NW 3.5 mph - N/A   Clear
6:15 AM 55.4 °F 35.6 °F 47% 30.11 in 10.0 mi Calm Calm - N/A   Clear
6:35 AM 59.0 °F 37.4 °F 45% 30.11 in 10.0 mi Calm Calm - N/A   Clear
6:55 AM 62.6 °F 37.4 °F 39% 30.11 in 10.0 mi Calm Calm - N/A   Clear
7:15 AM 64.4 °F 37.4 °F 37% 30.11 in 10.0 mi Calm Calm - N/A   Clear
7:35 AM 64.4 °F 37.4 °F 37% 30.11 in 10.0 mi SW 3.5 mph - N/A   Clear
7:55 AM 66.2 °F 37.4 °F 35% 30.11 in 10.0 mi Calm Calm - N/A   Clear
8:15 AM 68.0 °F 39.2 °F 35% 30.11 in 10.0 mi Calm Calm - N/A   Clear
8:35 AM 71.6 °F 39.2 °F 31% 30.11 in 10.0 mi WSW 3.5 mph - N/A   Clear
8:55 AM 73.4 °F 39.2 °F 29% 30.11 in 10.0 mi Calm Calm - N/A   Clear
9:15 AM 73.4 °F 39.2 °F 29% 30.10 in 10.0 mi NW 3.5 mph - N/A   Clear
9:35 AM 73.4 °F 41.0 °F 31% 30.10 in 10.0 mi Calm Calm - N/A   Clear
9:55 AM 75.2 °F 42.8 °F 31% 30.09 in 10.0 mi Calm Calm - N/A   Clear
10:15 AM 78.8 °F 44.6 °F 30% 30.09 in 10.0 mi Calm Calm - N/A   Clear
10:35 AM 80.6 °F 44.6 °F 28% 30.08 in 10.0 mi North 5.8 mph - N/A   Clear
10:55 AM 82.4 °F 44.6 °F 26% 30.08 in 10.0 mi NW 5.8 mph - N/A   Clear
11:15 AM 84.2 °F 42.8 °F 23% 30.08 in 10.0 mi NNE 5.8 mph - N/A   Clear
11:35 AM 86.0 °F 42.8 °F 22% 30.07 in 10.0 mi North 5.8 mph - N/A   Clear
11:55 AM 87.8 °F 42.8 °F 21% 30.07 in 10.0 mi NNE 5.8 mph - N/A   Clear
12:15 PM 87.8 °F 42.8 °F 21% 30.06 in 10.0 mi NNE 9.2 mph - N/A   Clear
12:35 PM 89.6 °F 44.6 °F 21% 30.05 in 10.0 mi NNW 5.8 mph - N/A   Clear
12:55 PM 89.6 °F 44.6 °F 21% 30.04 in 10.0 mi NNE 10.4 mph - N/A   Clear
1:15 PM 91.4 °F 44.6 °F 20% 30.04 in 10.0 mi NNW 4.6 mph - N/A   Clear
1:35 PM 93.2 °F 46.4 °F 20% 30.03 in 10.0 mi NNW 8.1 mph - N/A   Clear
1:55 PM 93.2 °F 44.6 °F 19% 30.02 in 10.0 mi NNE 10.4 mph 17.3 mph N/A   Clear
2:15 PM 91.4 °F 42.8 °F 18% 30.01 in 10.0 mi NNE 9.2 mph - N/A   Clear
2:35 PM 93.2 °F 42.8 °F 17% 30.01 in 10.0 mi NNW 4.6 mph - N/A   Clear
2:55 PM 93.2 °F 44.6 °F 19% 30.01 in 10.0 mi North 6.9 mph - N/A   Clear
3:15 PM 93.2 °F 44.6 °F 19% 30.00 in 10.0 mi North 8.1 mph - N/A   Clear
3:35 PM 93.2 °F 42.8 °F 17% 29.99 in 10.0 mi NNE 8.1 mph - N/A   Clear
3:55 PM 96.8 °F 42.8 °F 16% 29.99 in 10.0 mi North 11.5 mph - N/A   Clear
4:15 PM 95.0 °F 42.8 °F 16% 29.99 in 10.0 mi North 12.7 mph 17.3 mph N/A   Clear
4:35 PM 95.0 °F 42.8 °F 16% 29.98 in 10.0 mi NNE 12.7 mph 16.1 mph N/A   Clear
4:55 PM 95.0 °F 42.8 °F 16% 29.98 in 10.0 mi North 10.4 mph - N/A   Clear
5:15 PM 93.2 °F 42.8 °F 17% 29.97 in 10.0 mi North 12.7 mph - N/A   Clear
5:35 PM 93.2 °F 42.8 °F 17% 29.97 in 10.0 mi North 11.5 mph - N/A   Clear
5:55 PM 91.4 °F 42.8 °F 18% 29.97 in 10.0 mi North 11.5 mph - N/A   Clear
6:15 PM 91.4 °F 42.8 °F 18% 29.97 in 10.0 mi North 11.5 mph - N/A   Clear
6:35 PM 89.6 °F 41.0 °F 18% 29.97 in 10.0 mi North 12.7 mph - N/A   Clear
6:55 PM 89.6 °F 41.0 °F 18% 29.97 in 10.0 mi North 10.4 mph - N/A   Clear
7:15 PM 86.0 °F 42.8 °F 22% 29.97 in 10.0 mi NNW 9.2 mph - N/A   Clear
7:35 PM 84.2 °F 41.0 °F 22% 29.97 in 10.0 mi NNW 11.5 mph - N/A   Clear
7:55 PM 82.4 °F 39.2 °F 21% 29.98 in 10.0 mi NW 9.2 mph - N/A   Clear
8:15 PM 82.4 °F 39.2 °F 21% 29.98 in 10.0 mi NW 9.2 mph - N/A   Clear
8:35 PM 78.8 °F 37.4 °F 23% 29.99 in 10.0 mi WNW 6.9 mph - N/A   Clear
8:55 PM 78.8 °F 37.4 °F 23% 29.99 in 10.0 mi NW 8.1 mph - N/A   Clear
9:15 PM 75.2 °F 37.4 °F 25% 30.00 in 10.0 mi WNW 9.2 mph - N/A   Clear
9:35 PM 75.2 °F 37.4 °F 25% 30.00 in 10.0 mi WNW 9.2 mph - N/A   Clear
9:55 PM 71.6 °F 37.4 °F 29% 30.01 in 10.0 mi North 8.1 mph - N/A   Clear
10:15 PM 66.2 °F 35.6 °F 32% 30.01 in 10.0 mi ENE 3.5 mph - N/A   Clear
10:35 PM 62.6 °F 35.6 °F 37% 30.01 in 10.0 mi NE 4.6 mph - N/A   Clear
10:55 PM 62.6 °F 35.6 °F 37% 30.01 in 10.0 mi WNW 3.5 mph - N/A   Clear
11:15 PM 64.4 °F 35.6 °F 34% 30.01 in 10.0 mi Calm Calm - N/A   Clear
11:35 PM 62.6 °F 35.6 °F 37% 30.01 in 10.0 mi West 6.9 mph - N/A   Clear
11:55 PM 62.6 °F 37.4 °F 39% 30.01 in 10.0 mi West 6.9 mph - N/A   Clear